| time (UTC) | temp F | wind direction | speed MPH | gust MPH | rain 1hr in | rain 24hr in | rain mn in | humidity % | barometer mb |
| 20260906140035 | 78 | 183 | 1.0 | 4.0 | 0.00 | 0.00 | 0.00 | 37 | 1022.4 |
| 20260906134517 | 77 | 203 | 3.0 | 8.0 | 0.00 | 0.00 | 0.00 | 36 | 1022.6 |
| 20260906133015 | 76 | 233 | 2.0 | 7.0 | 0.00 | 0.00 | 0.00 | 35 | 1022.9 |
| 20260906131515 | 76 | 127 | 4.0 | 10.0 | 0.00 | 0.00 | 0.00 | 37 | 1023.0 |
| 20260906130028 | 76 | 120 | 3.0 | 7.0 | 0.00 | 0.00 | 0.00 | 38 | 1022.9 |
| 20260906124509 | 75 | 127 | 3.0 | 7.0 | 0.00 | 0.00 | 0.00 | 37 | 1023.2 |
| 20260906123013 | 75 | 115 | 3.0 | 8.0 | 0.00 | 0.00 | 0.00 | 39 | 1023.2 |
| 20260906121506 | 75 | 103 | 2.0 | 7.0 | 0.00 | 0.00 | 0.00 | 40 | 1023.2 |
| 20260906120003 | 74 | 236 | 1.0 | 8.0 | 0.00 | 0.00 | 0.00 | 42 | 1023.3 |
| 20260906114601 | 73 | 169 | 2.0 | 9.0 | 0.00 | 0.00 | 0.00 | 44 | 1023.4 |
| 20260906113058 | 73 | 205 | 2.0 | 8.0 | 0.00 | 0.00 | 0.00 | 44 | 1023.6 |
| 20260906111556 | 73 | 111 | 1.0 | 7.0 | 0.00 | 0.00 | 0.00 | 45 | 1023.8 |
| 20260906110052 | 72 | 142 | 1.0 | 8.0 | 0.00 | 0.00 | 0.00 | 48 | 1023.9 |
| 20260906104550 | 71 | 226 | 2.0 | 6.0 | 0.00 | 0.00 | 0.00 | 49 | 1024.2 |
| 20260906103053 | 71 | 179 | 4.0 | 8.0 | 0.00 | 0.00 | 0.00 | 48 | 1024.3 |
| 20260906101545 | 71 | 124 | 1.0 | 7.0 | 0.00 | 0.00 | 0.00 | 50 | 1024.5 |
| 20260906100042 | 70 | 195 | 2.0 | 7.0 | 0.00 | 0.00 | 0.00 | 51 | 1024.8 |
| 20260906094539 | 69 | 257 | 2.0 | 7.0 | 0.00 | 0.00 | 0.00 | 51 | 1024.9 |
| 20260906093039 | 68 | 129 | 2.0 | 6.0 | 0.00 | 0.00 | 0.00 | 51 | 1024.9 |
| 20260906091535 | 67 | 127 | 1.0 | 7.0 | 0.00 | 0.00 | 0.00 | 51 | 1025.0 |
| 20260906090031 | 66 | 249 | 2.0 | 8.0 | 0.00 | 0.00 | 0.00 | 52 | 1025.0 |
| 20260906084529 | 65 | 187 | 2.0 | 7.0 | 0.00 | 0.00 | 0.00 | 53 | 1025.3 |
| 20260906083032 | 65 | 160 | 4.0 | 8.0 | 0.00 | 0.00 | 0.00 | 53 | 1025.2 |
| 20260906081534 | 64 | 184 | 1.0 | 7.0 | 0.00 | 0.00 | 0.00 | 54 | 1025.3 |
| 20260906080024 | 64 | 110 | 3.0 | 7.0 | 0.00 | 0.00 | 0.00 | 54 | 1025.5 |
| 20260906074519 | 63 | 258 | 2.0 | 5.0 | 0.00 | 0.00 | 0.00 | 55 | 1025.5 |
| 20260906073015 | 61 | 140 | 2.0 | 6.0 | 0.00 | 0.00 | 0.00 | 57 | 1025.5 |
| 20260906071513 | 60 | 165 | 1.0 | 5.0 | 0.00 | 0.00 | 0.00 | 57 | 1025.5 |
| 20260906070010 | 59 | 120 | 1.0 | 2.0 | 0.00 | 0.00 | 0.00 | 59 | 1025.5 |
| 20260906064505 | 57 | 129 | 0.0 | 3.0 | 0.00 | 0.00 | 0.00 | 62 | 1025.5 |
| 20260906063001 | 56 | 126 | 0.0 | 2.0 | 0.00 | 0.00 | 0.00 | 66 | 1025.7 |
| 20260906061558 | 54 | 103 | 0.0 | 2.0 | 0.00 | 0.00 | 0.00 | 72 | 1025.7 |
| 20260906060057 | 52 | 139 | 0.0 | 2.0 | 0.00 | 0.00 | 0.00 | 72 | 1025.5 |
| 20260906054557 | 51 | 139 | 0.0 | 0.0 | 0.00 | 0.00 | 0.00 | 72 | 1025.6 |
| 20260906053053 | 50 | 139 | 0.0 | 0.0 | 0.00 | 0.00 | 0.00 | 72 | 1025.7 |
| 20260906051554 | 50 | 139 | 0.0 | 0.0 | 0.00 | 0.00 | 0.00 | 72 | 1025.8 |
| 20260906050113 | 50 | 142 | 0.0 | 0.0 | 0.00 | 0.00 | 0.00 | 71 | 1025.8 |
| 20260906044554 | 50 | 142 | 0.0 | 0.0 | 0.00 | 0.00 | 0.00 | 71 | 1025.9 |
| 20260906043101 | 50 | 142 | 0.0 | 0.0 | 0.00 | 0.00 | 0.00 | 70 | 1025.9 |
| 20260906041547 | 51 | 142 | 0.0 | 0.0 | 0.00 | 0.00 | 0.00 | 70 | 1026.1 |
| 20260906040047 | 51 | 214 | 0.0 | 0.0 | 0.00 | 0.00 | 0.00 | 69 | 1026.1 |
| 20260906034545 | 51 | 214 | 0.0 | 0.0 | 0.00 | 0.00 | 0.00 | 69 | 1026.1 |
| 20260906033045 | 51 | 214 | 0.0 | 0.0 | 0.00 | 0.00 | 0.00 | 69 | 1026.1 |
| 20260906031544 | 51 | 214 | 0.0 | 0.0 | 0.00 | 0.00 | 0.00 | 68 | 1026.2 |
| 20260906030040 | 52 | 214 | 0.0 | 0.0 | 0.00 | 0.00 | 0.00 | 68 | 1026.4 |
| 20260906024539 | 52 | 214 | 0.0 | 0.0 | 0.00 | 0.00 | 0.00 | 68 | 1026.6 |
| 20260906023038 | 51 | 214 | 0.0 | 0.0 | 0.00 | 0.00 | 0.00 | 68 | 1026.8 |
| 20260906021536 | 52 | 214 | 0.0 | 0.0 | 0.00 | 0.00 | 0.00 | 68 | 1026.9 |
| 20260906020035 | 52 | 214 | 0.0 | 0.0 | 0.00 | 0.00 | 0.00 | 67 | 1026.9 |
| 20260906014535 | 52 | 214 | 0.0 | 0.0 | 0.00 | 0.00 | 0.00 | 67 | 1026.7 |
| 20260906013033 | 52 | 214 | 0.0 | 0.0 | 0.00 | 0.00 | 0.00 | 67 | 1027.0 |
| 20260906011535 | 52 | 215 | 0.0 | 0.0 | 0.00 | 0.00 | 0.00 | 66 | 1026.9 |
| 20260906010030 | 52 | 215 | 0.0 | 0.0 | 0.00 | 0.00 | 0.00 | 66 | 1026.9 |
| 20260906004531 | 53 | 214 | 0.0 | 0.0 | 0.00 | 0.00 | 0.00 | 66 | 1027.0 |
| 20260906003029 | 53 | 214 | 0.0 | 0.0 | 0.00 | 0.00 | 0.00 | 66 | 1027.2 |
| 20260906001527 | 53 | 126 | 0.0 | 0.0 | 0.00 | 0.00 | 0.00 | 66 | 1027.2 |
| 20260906000029 | 53 | 110 | 0.0 | 0.0 | 0.00 | 0.00 | 0.00 | 65 | 1026.7 |
| 20260905234523 | 53 | 110 | 0.0 | 0.0 | 0.00 | 0.00 | 0.00 | 65 | 1026.4 |
| 20260905233026 | 53 | 110 | 0.0 | 0.0 | 0.00 | 0.00 | 0.00 | 64 | 1026.6 |
| 20260905231518 | 54 | 110 | 0.0 | 0.0 | 0.00 | 0.00 | 0.00 | 64 | 1026.8 |
| 20260905230017 | 54 | 110 | 0.0 | 0.0 | 0.00 | 0.00 | 0.00 | 64 | 1026.6 |
| 20260905224516 | 54 | 110 | 0.0 | 0.0 | 0.00 | 0.00 | 0.00 | 64 | 1026.4 |
| 20260905223015 | 54 | 110 | 0.0 | 0.0 | 0.00 | 0.00 | 0.00 | 64 | 1026.4 |
| 20260905221513 | 54 | 110 | 0.0 | 0.0 | 0.00 | 0.00 | 0.00 | 63 | 1026.4 |
| 20260905220010 | 55 | 110 | 0.0 | 0.0 | 0.00 | 0.00 | 0.00 | 63 | 1026.4 |
| 20260905214508 | 55 | 110 | 0.0 | 0.0 | 0.00 | 0.00 | 0.00 | 62 | 1026.4 |
| 20260905213007 | 55 | 110 | 0.0 | 0.0 | 0.00 | 0.00 | 0.00 | 63 | 1026.4 |
| 20260905211505 | 56 | 227 | 0.0 | 0.0 | 0.00 | 0.00 | 0.00 | 62 | 1026.5 |
| 20260905210006 | 56 | 227 | 0.0 | 0.0 | 0.00 | 0.00 | 0.00 | 62 | 1026.6 |
| 20260905204508 | 56 | 227 | 0.0 | 0.0 | 0.00 | 0.00 | 0.00 | 62 | 1026.4 |
| 20260905203102 | 57 | 227 | 0.0 | 0.0 | 0.00 | 0.00 | 0.00 | 62 | 1026.3 |
| 20260905201600 | 58 | 227 | 0.0 | 0.0 | 0.00 | 0.00 | 0.00 | 61 | 1026.3 |
| 20260905200058 | 59 | 227 | 0.0 | 0.0 | 0.00 | 0.00 | 0.00 | 60 | 1026.4 |
| 20260905194557 | 59 | 227 | 0.0 | 0.0 | 0.00 | 0.00 | 0.00 | 59 | 1026.2 |
| 20260905193050 | 60 | 178 | 0.0 | 0.0 | 0.00 | 0.00 | 0.00 | 58 | 1026.3 |
| 20260905191547 | 61 | 178 | 0.0 | 0.0 | 0.00 | 0.00 | 0.00 | 57 | 1026.1 |
| 20260905190043 | 62 | 179 | 0.0 | 0.0 | 0.00 | 0.00 | 0.00 | 56 | 1025.9 |
| 20260905184556 | 63 | 4 | 0.0 | 1.0 | 0.00 | 0.00 | 0.00 | 55 | 1025.8 |
| 20260905183042 | 63 | 238 | 0.0 | 1.0 | 0.00 | 0.00 | 0.00 | 54 | 1025.8 |
| 20260905181540 | 64 | 322 | 0.0 | 4.0 | 0.00 | 0.00 | 0.00 | 54 | 1026.0 |
| 20260905180040 | 65 | 253 | 1.0 | 7.0 | 0.00 | 0.00 | 0.00 | 53 | 1026.1 |
| 20260905174544 | 66 | 262 | 1.0 | 6.0 | 0.00 | 0.00 | 0.00 | 53 | 1026.0 |
| 20260905173037 | 67 | 236 | 1.0 | 7.0 | 0.00 | 0.00 | 0.00 | 52 | 1025.9 |
| 20260905171538 | 68 | 262 | 1.0 | 4.0 | 0.00 | 0.00 | 0.00 | 51 | 1025.7 |
| 20260905170035 | 67 | 272 | 0.0 | 7.0 | 0.00 | 0.00 | 0.00 | 52 | 1025.7 |
| 20260905164535 | 68 | 262 | 1.0 | 5.0 | 0.00 | 0.00 | 0.00 | 52 | 1025.6 |
| 20260905163035 | 68 | 270 | 2.0 | 8.0 | 0.00 | 0.00 | 0.00 | 52 | 1025.7 |
| 20260905161532 | 68 | 318 | 2.0 | 9.0 | 0.00 | 0.00 | 0.00 | 50 | 1025.7 |
| 20260905160045 | 68 | 72 | 2.0 | 9.0 | 0.00 | 0.00 | 0.00 | 51 | 1025.6 |
| 20260905154529 | 68 | 311 | 2.0 | 12.0 | 0.00 | 0.00 | 0.00 | 52 | 1025.5 |
| 20260905153028 | 68 | 264 | 2.0 | 8.0 | 0.00 | 0.00 | 0.00 | 52 | 1025.5 |
| 20260905151527 | 69 | 312 | 2.0 | 7.0 | 0.00 | 0.00 | 0.00 | 51 | 1025.3 |
| 20260905150029 | 68 | 294 | 3.0 | 11.0 | 0.00 | 0.00 | 0.00 | 52 | 1025.2 |
| 20260905144539 | 68 | 235 | 5.0 | 10.0 | 0.00 | 0.00 | 0.00 | 52 | 1025.1 |
| 20260905143024 | 68 | 11 | 3.0 | 10.0 | 0.00 | 0.00 | 0.00 | 52 | 1025.0 |
| 20260905141538 | 68 | 255 | 4.0 | 11.0 | 0.00 | 0.00 | 0.00 | 53 | 1025.0 |